Hourly Data Report for October 25, 2019

All times are specified in Local Standard Time (LST). Add 1 hour to adjust for Daylight Saving Time where and when it is observed.

WOODSTOCK NEWBRIDGE
NEW BRUNSWICK
Current Station Operator: ECCC - MSC

46°09'08.000" N
67°32'34.000" W
154.00 m
8105603
71606
EWD

Download Data

Hourly Data (October 2019)
Hourly Data Report for October 25, 2019
TIME Temp Definition
°C
Dew Point Definition
°C
Rel Hum Definition
%
Wind Dir Definition
10's deg

Wind Spd Definition
km/h
Visibility Definition
km
Stn Press Definition
kPa
Hmdx Definition


Wind Chill Definition


Weather Definition


00:00 8.0 4.7 79 16 6   100.29     LegendNANA
01:00 7.8 4.5 80 21 2   100.29     LegendNANA
02:00 8.1 4.8 80 24 7   100.39     LegendNANA
03:00 7.4 2.7 72 23 8   100.43     LegendNANA
04:00 4.3 1.8 84 22 4   100.46     LegendNANA
05:00 4.8 2.6 86 23 5   100.50     LegendNANA
06:00 5.7 2.8 82 24 8   100.53     LegendNANA
07:00 4.9 1.8 80 31 4   100.59     LegendNANA
08:00 5.9 2.2 77 28 9   100.61     LegendNANA
09:00 6.6 2.4 74 27 9   100.66     LegendNANA
10:00 7.2 2.4 72 25 13   100.66     LegendNANA
11:00 8.3 2.4 66 26 14   100.63     LegendNANA
12:00 8.8 1.0 58 26 10   100.56     LegendNANA
13:00 9.2 -1.0 49 26 14   100.51     LegendNANA
14:00 9.2 -0.4 51 25 15   100.52     LegendNANA
15:00 9.0 0.1 54 24 13   100.47     LegendNANA
16:00 8.6 0.3 56 24 11   100.43     LegendNANA
17:00 7.9 0.6 60 24 7   100.40     LegendNANA
18:00 4.4 0.8 78   0   100.40     LegendNANA
19:00 1.9 0.1 88 22 2   100.41     LegendNANA
20:00 1.1 -0.6 89 22 3   100.40     LegendNANA
21:00 0.3 -0.5 94   0   100.39     LegendNANA
22:00 0.4 -0.2 96 29 4   100.43     LegendNANA
23:00 0.2 -0.4 96 27 3   100.41     LegendNANA

Notes on Data Quality.

Legend

  • E = Estimated
  • M = Missing
  • NA = Not Available
Date modified: